Regional Weather Roundup
Issued by NWS

Home | Current Version | Previous Version | Graphics & Text | Print | Product List | Glossary On
Versions: 1 2 3 4 5 6 7 8 9 10 11 12 13 14 15 16 17 18 19 20 21 22 23 24 25 26 27 28 29 30 31 32 33 34 35 36 37 38 39 40 41 42 43 44 45 46 47 48 49 50
000
ASUS43 KMPX 141910
RWRMN
WEATHER ROUNDUP FOR MINNESOTA
NATIONAL WEATHER SERVICE TWIN CITIES/CHANHASSEN MN
200 PM CDT SUN SEP 14 2014


NOTE: "FAIR" INDICATES FEW OR NO CLOUDS BELOW 12,000 FEET WITH NO
SIGNIFICANT WEATHER AND/OR OBSTRUCTIONS TO VISIBILITY. N/A MEANS
CURRENT SKY AND/OR WEATHER CONDITIONS ARE NOT AVAILABLE.

MNZ060>063-068>070-142000-
   Twin Cities Metro

CITY           SKY/WX    TMP DP  RH WIND       PRES   REMARKS
TWIN CITIES    PTSUNNY   65  39  38 W13       30.12S
ST PAUL        MOSUNNY   63  39  41 W13G24    30.12S
CRYSTAL        MOSUNNY   64  37  36 W15       30.11S
BLAINE         PTSUNNY   63  39  42 W13G18    30.11S
LAKEVILLE      SUNNY     63  41  45 W10G18    30.12F
EDEN PRAIRIE   PTSUNNY   64  40  41 W12G20    30.12S
SOUTH ST PAUL  MOSUNNY   65  38  36 W10G20    30.12S
LAKE ELMO      FAIR      63  43  48 W10G20    30.12S
$$
MNZ001>005-007-008-013>017-022>024-027-028-142000-
   Northwest Minnesota

CITY           SKY/WX    TMP DP  RH WIND       PRES   REMARKS
BEMIDJI        CLOUDY    53  44  70 W14       30.09R
HALLOCK        MOSUNNY   55  45  67 NW14G20   30.08S
ROSEAU         PTSUNNY   55  46  71 W12       30.06S
WARROAD        PTSUNNY   57  45  62 W9        30.05S
THIEF RVR FALL CLOUDY    52  45  76 NW8       30.10R
CROOKSTON      CLOUDY    54  45  71 NW10      30.12R
FOSSTON        CLOUDY    48  43  81 NW5       30.12R
DETROIT LAKES  CLOUDY    52  45  76 NW9       30.13S
MOORHEAD       PTSUNNY   57  45  62 NW5       30.13S
PARK RAPIDS    CLOUDY    50  43  77 W14       30.11R
MAHNOMEN       CLOUDY    52  42  70 NW8G16    30.11S
$$
MNZ006-009>011-018-025>026-142000-
   North Central Minnesota

CITY           SKY/WX    TMP DP  RH WIND       PRES   REMARKS
BAUDETTE       MOSUNNY   57  46  66 NW10      30.04R
FLAG ISLAND    MOSUNNY   55  43  62 W12       30.01S
INTL FALLS     PTSUNNY   54  49  83 NW10      30.01R
WASKISH        PTSUNNY   55  45  67 W6        30.05S
BIG FORK       MOSUNNY   55  45  67 W10       30.04F
LONGVILLE      CLOUDY    54  45  71 W7        30.08R
GRAND RAPIDS   CLOUDY    52  41  66 W13       30.07R
CRANE LAKE     LGT RAIN  52  45  76 W5        30.00R
ORR            CLOUDY    54  41  62 W13       29.99R
COOK           PTSUNNY   54  43  66 W13G18    30.02S
WALKER         CLOUDY    51  43  73 W12G17    30.10R
$$
MNZ012-019>021-037-142000-
   Northeast Minnesota

CITY           SKY/WX    TMP DP  RH WIND       PRES   REMARKS
DULUTH         CLOUDY    56  40  55 W16G25    30.04R
ELY            CLOUDY    54  41  62 W12G23    29.99R
HIBBING        CLOUDY    53  42  66 W9        30.05R
EVELETH        PTSUNNY   52  43  71 W13G18    30.05R
DULUTH HARBOR  CLOUDY    59  43  55 W17       30.05R
TWO HARBORS    PTSUNNY   55  41  58 W13G18    30.01R
SILVER BAY     SUNNY     55  45  67 W10       29.99S
GRAND MARAIS     N/A     55  45  68 W6        29.96R
G MARAIS ARPRT CLOUDY    48  37  66 W8        29.97S
$$
MNZ029>031-032-039>041-046>048-054>057-064-142000-
   West Central Minnesota

CITY           SKY/WX    TMP DP  RH WIND       PRES   REMARKS
FERGUS FALLS   CLOUDY    55  39  54 NW8       30.13F
WHEATON        CLOUDY    55  43  62 W12       30.15F
MORRIS         CLOUDY    59  43  55 NW13      30.13F
ALEXANDRIA     CLOUDY    55  42  61 W10       30.14S
ELBOW LAKE     CLOUDY    54  41  62 NW8       30.13F
WADENA         CLOUDY    54  43  66 W12       30.11F
GLENWOOD       PTSUNNY   57  43  58 W9        30.13F
APPLETON       CLOUDY    59  41  51 W6        30.15S
BENSON         CLOUDY    57  43  58 NW10G16   30.14F
ORTONVILLE     CLOUDY    57  41  54 NW8       30.14F
MADISON        CLOUDY    61  43  51 NW5       30.15S
WILLMAR        FAIR      57  39  51 W10       30.16S
$$
MNZ033>034-036-042>043-049>051-058-059-142000-
   Central Minnesota

CITY           SKY/WX    TMP DP  RH WIND       PRES   REMARKS
ST CLOUD       MOSUNNY   61  40  45 W15       30.12R
SAUK CENTRE    FAIR      56  41  57 W10       30.13S
PAYNESVILLE    PTSUNNY   55  39  54 W8        30.14R
AITKIN         PTSUNNY   59  45  58 W8G18     30.07S
PINE RIVER     CLOUDY    54  43  66 W8        30.13R
BRAINERD       MOSUNNY   55  41  59 NW12      30.11R
STAPLES        CLOUDY    54  41  62 NW9       30.11S
LONG PRAIRIE   PTSUNNY   54  41  62 SW10G17   30.13S
LITTLE FALLS   PTSUNNY   57  39  51 W10G17    30.11S
LITCHFIELD     CLOUDY    59  43  55 W7        30.14F
BUFFALO        PTSUNNY   60  39  47 SW6G17    30.14R
MAPLE LAKE     PTSUNNY   61  43  52 W7        30.13S
$$
MNZ037-044-045-052-053-142000-
   East Central Minnesota

CITY           SKY/WX    TMP DP  RH WIND       PRES   REMARKS
PRINCETON      MOSUNNY   63  43  48 CALM      30.11S
MORA           PTSUNNY   57  39  51 W9G16     30.10S
CAMBRIDGE      SUNNY     63  45  51 W13G20    30.08S
RUSH CITY      PTSUNNY   62  43  49 W10G18    30.09S
MOOSE LAKE     PTSUNNY   57  41  54 W8G18     30.06R
HINCKLEY       MOCLDY    59  43  55 W12G21    30.08S
CLOQUET        PTSUNNY   55  39  54 W15       30.06R
MCGREGOR       PTSUNNY   55  43  62 W8G16     30.08S
$$
MNZ071>073-080-081-089-090-097-098-142000-
   Southwest Minnesota

CITY           SKY/WX    TMP DP  RH WIND       PRES   REMARKS
MONTEVIDEO     CLOUDY    63  43  48 NW5       30.16S
GRANITE FALLS  PTSUNNY   60  40  49 SW6       30.16F
CANBY          PTSUNNY   59  39  46 W9        30.16F
MARSHALL       PTSUNNY   63  36  36 W7        30.14S
REDWOOD FALLS  PTSUNNY   61  38  42 NW8       30.14F
OLIVIA         CLOUDY    59  39  47 NW12      30.14F
PIPESTONE      PTSUNNY   63  37  39 NW8       30.15F
WINDOM         MOSUNNY   64  41  42 S6        30.15S
WORTHINGTON    CLOUDY    63  43  48 SW5       30.16S
JACKSON        CLOUDY    64  37  36 CALM      30.16S
TRACY          MOSUNNY   64  41  44 CALM      30.15F
SLAYTON        CLOUDY    62  35  36 CALM      30.16S
$$
MNZ065>067-074>077-082>085-091>093-142000-
   South Central Minnesota

CITY           SKY/WX    TMP DP  RH WIND       PRES   REMARKS
MANKATO        MOSUNNY   63  39  42 W7        30.14F
NEW ULM        MOSUNNY   63  41  45 NW8       30.14F
ST JAMES       SUNNY     64  41  42 W7        30.15F
FAIRMONT       PTSUNNY   66  43  42 W8        30.15F
GLENCOE        PTSUNNY   62  37  39 W12G17    30.13F
FARIBAULT      SUNNY     66  39  37 SW10      30.14F
OWATONNA       SUNNY     64  43  45 W5        30.14F
WASECA         SUNNY     63  36  36 SW10      30.15F
ALBERT LEA     SUNNY     66  48  52 SW10      30.14F
$$
MNZ078>079-086>088-094>096-142000-
   Southeast Minnesota

CITY           SKY/WX    TMP DP  RH WIND       PRES   REMARKS
ROCHESTER      MOSUNNY   67  48  50 W14G22    30.14F
RED WING       MOSUNNY   66  39  37 W14       30.11S
STANTON        SUNNY     65  42  43 W10G18    30.11F
DODGE CENTER   MOSUNNY   64  48  55 W12       30.13F
WINONA         PTSUNNY   70  50  49 SW5       30.12S
AUSTIN         SUNNY     64  50  59 SW12G17   30.13F
PRESTON        MOSUNNY   65  53  64 SW14G22   30.14F
$$
ABBREVIATIONS USED IN REMARKS
   TC - TEMPERATURES IN CELSIUS
  WCI - WIND CHILL INDEX
   HX - HEAT INDEX
  VSB - VISIBILITY
$$


USA.gov is the U.S. government's official web portal to all federal, state and local government web resources and services.